Double Island Point Observation History
Time Wind Speed Temp Pressure Rel. Hum Rain
14/10:00am S 6-9 kts 20.0°c 1014.5 hPa 47% 0.0mm
14/09:30am S 5-7 kts 19.5°c 1014.4 hPa 48% 0.0mm
14/09:00am SSW 4-7 kts 18.8°c 1014.4 hPa 46% 0.0mm
14/08:30am SSW 6-9 kts 18.0°c 1014.1 hPa 52% 0.0mm
14/08:00am SW 6-9 kts 17.0°c 1013.9 hPa 54% 0.0mm
14/07:30am SSW 7-9 kts 16.2°c 1013.7 hPa 57% 0.0mm
14/07:00am SSW 10-12 kts 15.1°c 1013.2 hPa 60% 0.0mm
14/06:30am SW 9-11 kts 15.1°c 1013.1 hPa 56% 0.0mm
14/06:00am SSW 8-11 kts 15.4°c 1012.6 hPa 55% 0.0mm
14/05:30am SSW 10-13 kts 15.4°c 1012.2 hPa 55% 0.0mm
14/05:00am SW 8-11 kts 15.6°c 1011.9 hPa 54% 0.0mm
14/04:30am SW 8-12 kts 15.8°c 1011.7 hPa 53% 0.0mm
14/04:00am SSW 9-14 kts 15.5°c 1011.2 hPa 56% 0.0mm
14/03:30am SW 11-15 kts 15.4°c 1011.3 hPa 57% 0.0mm
14/03:00am SW 11-15 kts 15.3°c 1011.2 hPa 58% 0.0mm
14/02:30am SW 9-15 kts 15.4°c 1011.8 hPa 59% 0.0mm
14/02:00am WSW 13-16 kts 15.7°c 1011.8 hPa 59% 0.0mm
14/01:30am WSW 11-15 kts 16.0°c 1012.2 hPa 59% 0.0mm
14/01:00am WSW 11-16 kts 16.6°c 1012.5 hPa 55% 0.0mm
14/12:30am W 9-15 kts 16.5°c 1012.8 hPa 58% 0.0mm
14/12:00am WSW 16-19 kts 17.0°c 1012.7 hPa 57% 0.0mm
Time Wind Speed Temp Pressure Rel. Hum Rain
13/11:30pm WSW 16-18 kts 17.4°c 1012.8 hPa 56% 0.0mm
13/11:00pm WSW 13-17 kts 18.1°c 1012.7 hPa 54% 0.0mm
13/10:30pm SW 15-18 kts 18.4°c 1012.6 hPa 51% 0.0mm
13/10:00pm SW 12-16 kts 18.8°c 1013.0 hPa 48% 0.0mm
13/09:30pm SW 13-16 kts 19.1°c 1013.1 hPa 49% 0.0mm
13/09:00pm SW 12-15 kts 19.3°c 1013.0 hPa 57% 0.0mm
13/08:30pm SSW 11-13 kts 19.7°c 1012.8 hPa 61% 0.0mm
13/08:00pm SSW 13-16 kts 20.9°c 1012.7 hPa 49% 0.0mm
13/07:30pm SW 13-15 kts 20.7°c 1012.3 hPa 67% 0.0mm
13/07:00pm SW 8-10 kts 21.2°c 1012.3 hPa 80% 0.0mm
13/06:30pm SSW 8-9 kts 21.3°c 1012.0 hPa 86% 0.0mm
13/06:00pm WSW 9-11 kts 22.2°c 1011.4 hPa 64% 0.0mm
13/05:30pm SSE 5-7 kts 21.9°c 1011.0 hPa 82% 0.0mm
13/05:00pm SSE 5-6 kts 22.2°c 1010.5 hPa 82% 0.0mm
13/04:30pm S 6-8 kts 22.6°c 1010.3 hPa 77% 0.0mm
13/04:00pm S 5-6 kts 23.1°c 1010.2 hPa 76% 0.0mm
13/03:30pm S 4-6 kts 24.1°c 1010.2 hPa 73% 0.0mm
13/03:00pm SSW 7-9 kts 24.8°c 1010.2 hPa 69% 0.0mm
13/02:30pm NNW 5-8 kts 26.5°c 1010.2 hPa 68% 0.0mm
13/02:00pm N 4-6 kts 27.1°c 1010.5 hPa 70% 0.0mm
13/01:30pm NNW 5-7 kts 27.0°c 1010.7 hPa 70% 0.0mm
13/01:00pm NNW 5-8 kts 26.8°c 1011.1 hPa 73% 0.0mm
13/12:30pm NNW 4-9 kts 26.5°c 1011.6 hPa 76% 0.0mm
13/12:00pm NNW 5-8 kts 25.6°c 1012.2 hPa 78% 0.0mm
13/11:30am NNW 6-10 kts 25.2°c 1012.7 hPa 76% 0.0mm
13/11:00am NW 7-9 kts 23.6°c 1013.1 hPa 81% 0.0mm
13/10:30am NW 6-10 kts 23.2°c 1013.5 hPa 84% 0.0mm
13/10:00am WNW 5-7 kts 22.8°c 1013.7 hPa 85% 0.0mm
13/09:30am NW 6-8 kts 21.9°c 1013.7 hPa 85% 0.0mm
13/09:00am SSW 2-4 kts 22.9°c 1013.9 hPa 86% 24.2mm
13/08:30am SSW 1-3 kts 22.4°c 1013.8 hPa 90% 24.2mm
13/08:00am SSW 2-4 kts 21.1°c 1013.6 hPa 92% 24.0mm
13/07:30am SSW 5 kts 20.3°c 1013.4 hPa 94% 24.0mm
13/07:00am SSW 5-7 kts 19.9°c 1013.3 hPa 95% 24.0mm
13/06:30am SSW 5-6 kts 19.6°c 1013.2 hPa 95% 24.0mm
13/06:00am SSW 7-8 kts 19.5°c 1012.8 hPa 96% 24.0mm
13/05:30am SSW 8-10 kts 19.5°c 1013.0 hPa 96% 24.0mm
13/05:00am S 7-8 kts 19.5°c 1012.6 hPa 96% 24.0mm
13/04:30am SSW 9-10 kts 19.6°c 1012.7 hPa 96% 24.0mm
13/04:00am S 9-11 kts 19.8°c 1012.4 hPa 96% 24.0mm
13/03:30am SSE 9-11 kts 20.2°c 1012.3 hPa 94% 24.0mm
13/03:00am S 7-9 kts 20.0°c 1012.6 hPa 95% 24.0mm
13/02:30am S 10-13 kts 19.9°c 1012.7 hPa 95% 24.0mm
13/02:00am SSW 11-13 kts 19.8°c 1013.1 hPa 96% 24.0mm
13/01:30am S 11-13 kts 20.1°c 1013.2 hPa 96% 24.0mm
13/01:00am S 12-15 kts 20.2°c 1013.7 hPa 94% 24.0mm
13/12:30am SSE 11-14 kts 20.2°c 1014.0 hPa 94% 23.8mm
13/12:00am SSE 13-16 kts 20.1°c 1014.0 hPa 94% 23.8mm
Time Wind Speed Temp Pressure Rel. Hum Rain
12/11:30pm S 12-14 kts 20.1°c 1014.5 hPa 94% 23.6mm
12/11:00pm SSE 13-17 kts 19.9°c 1014.5 hPa 95% 23.6mm
12/10:30pm SSE 13-15 kts 20.2°c 1014.6 hPa 97% 23.6mm
12/10:00pm SW 8-16 kts 19.2°c 1015.4 hPa 95% 21.2mm
12/09:30pm SSE 12-16 kts 20.0°c 1015.6 hPa 95% 19.4mm
12/09:00pm SSE 14-18 kts 19.3°c 1015.1 hPa 97% 19.4mm
12/08:30pm S 14-18 kts 18.9°c 1014.7 hPa 98% 19.4mm
12/08:00pm SSW 16-29 kts 18.7°c 1015.2 hPa 97% 12.8mm
12/07:54pm S 19-29 kts 19.1°c 1015.1 hPa 96% 9.0mm
12/07:52pm S 20-29 kts 19.1°c 1014.8 hPa 94% 7.2mm
12/07:41pm SSE 19-24 kts 22.0°c 1014.2 hPa 95% 1.8mm
12/07:30pm ESE 16-20 kts 22.8°c 1014.3 hPa 91% 0.0mm
12/07:00pm ESE 16-18 kts 23.0°c 1014.0 hPa 91% 0.0mm
12/06:30pm ESE 13-15 kts 22.9°c 1014.3 hPa 89% 0.0mm
12/06:00pm SE 13-15 kts 22.9°c 1014.4 hPa 89% 0.0mm
12/05:30pm ESE 11-13 kts 22.9°c 1014.2 hPa 91% 0.0mm
12/05:00pm ESE 12-14 kts 22.9°c 1014.0 hPa 89% 0.0mm
12/04:30pm ESE 12-13 kts 23.2°c 1013.8 hPa 89% 0.0mm
12/04:00pm SE 12-13 kts 23.2°c 1013.6 hPa 89% 0.0mm
12/03:30pm SE 9-10 kts 23.9°c 1013.6 hPa 87% 0.0mm
12/03:00pm SE 8-9 kts 23.8°c 1013.3 hPa 89% 0.0mm
12/02:30pm NNW 4-5 kts 24.9°c 1013.4 hPa 79% 0.0mm
12/02:00pm NNW 3-5 kts 26.8°c 1013.6 hPa 71% 0.0mm
12/01:30pm NNW 3-6 kts 27.9°c 1013.9 hPa 69% 0.0mm
12/01:00pm NNW 3-6 kts 28.1°c 1014.5 hPa 73% 0.0mm
12/12:30pm NNW 4-6 kts 27.7°c 1015.1 hPa 69% 0.0mm
12/12:00pm NNW 3-6 kts 27.4°c 1015.5 hPa 71% 0.0mm
12/11:30am WNW 3-5 kts 26.4°c 1016.2 hPa 75% 0.0mm
12/11:00am WNW 3-5 kts 25.9°c 1016.5 hPa 76% 0.0mm
12/10:30am N 3-6 kts 26.0°c 1016.8 hPa 77% 0.0mm
12/10:00am NNW 5-7 kts 24.4°c 1017.2 hPa 82% 0.0mm
12/09:30am NNW 6-8 kts 24.4°c 1017.0 hPa 81% 0.0mm
12/09:00am NW 6-8 kts 24.1°c 1017.0 hPa 89% 1.0mm
12/08:30am N 5-8 kts 23.8°c 1017.0 hPa 89% 1.0mm
12/08:00am N 3-7 kts 22.9°c 1016.9 hPa 93% 1.0mm
12/07:30am N 5-7 kts 21.6°c 1016.7 hPa 94% 1.0mm
12/07:00am N 3-4 kts 20.9°c 1016.3 hPa 93% 1.0mm
12/06:30am N 1-4 kts 20.8°c 1016.1 hPa 92% 1.0mm
12/06:00am N 6-11 kts 20.8°c 1016.0 hPa 91% 0.8mm
12/05:30am NNE 16-24 kts 21.8°c 1015.6 hPa 83% 0.0mm
12/05:28am NNE 13-24 kts 22.0°c 1015.6 hPa 82% 0.0mm
12/05:00am NNE 8-11 kts 22.4°c 1015.6 hPa 90% 0.0mm
12/04:30am NNE 8-11 kts 22.4°c 1015.6 hPa 90% 0.0mm
12/04:00am NNE 7-11 kts 22.3°c 1015.7 hPa 89% 0.0mm
12/03:30am NNE 9-13 kts 22.4°c 1015.2 hPa 91% 0.0mm
12/03:00am NE 10-14 kts 22.4°c 1015.0 hPa 89% 0.0mm
12/02:30am NE 10-15 kts 22.4°c 1015.1 hPa 89% 0.0mm
12/02:00am ENE 11-14 kts 23.0°c 1015.4 hPa 89% 0.0mm
12/01:30am ENE 12-14 kts 22.9°c 1015.6 hPa 88% 0.0mm
12/01:00am ENE 11-14 kts 22.9°c 1016.1 hPa 88% 0.0mm
12/12:30am NE 7-10 kts 22.3°c 1016.5 hPa 90% 0.0mm
12/12:00am NE 8-11 kts 22.4°c 1016.8 hPa 89% 0.0mm